• Em Portugal
  • Lista de países
  • Para 7 dias
  • Temperatura da água
  • Mapas de satélite
  • Mapa do tempo
  • Widgets de tempo
  • user-avatar
    Iniciar Sessão

    Previsão horária em Andora

    Hoje, 19 Outubro, Sexta-feira

    Tempo Temperatura Precipitação Vento Pressão Humidade
    00:00 +7°C° 0 mm 2 m/s 624 mmHg 92%
    01:00 +7°C° 0 mm 2 m/s 624 mmHg 91%
    02:00 +7°C° 0 mm 2 m/s 624 mmHg 91%
    03:00 +7°C° 0 mm 2 m/s 624 mmHg 90%
    04:00 +7°C° 0 mm 2 m/s 624 mmHg 90%
    05:00 +7°C° 0 mm 2 m/s 624 mmHg 90%
    06:00 +7°C° 0 mm 2 m/s 624 mmHg 90%
    07:00 +8°C° 0 mm 2 m/s 625 mmHg 86%
    08:00 +9°C° 0 mm 2 m/s 626 mmHg 82%
    09:00 +12°C° 0 mm 1 m/s 627 mmHg 79%
    10:00 +12°C° 0.2 mm 2 m/s 627 mmHg 76%
    11:00 +13°C° 0.2 mm 2 m/s 627 mmHg 73%
    12:00 +14°C° 0.2 mm 2 m/s 628 mmHg 71%
    13:00 +13°C° 1.6 mm 2 m/s 627 mmHg 75%
    14:00 +12°C° 1.6 mm 2 m/s 627 mmHg 80%
    15:00 +10°C° 1.6 mm 2 m/s 626 mmHg 85%
    16:00 +11°C° 2.3 mm 1 m/s 626 mmHg 87%
    17:00 +10°C° 2.3 mm 1 m/s 626 mmHg 90%
    18:00 +9°C° 2.3 mm 1 m/s 626 mmHg 92%
    19:00 +9°C° 1 mm 1 m/s 626 mmHg 91%
    20:00 +9°C° 1 mm 1 m/s 627 mmHg 91%
    21:00 +9°C° 1 mm 1 m/s 627 mmHg 91%
    22:00 +9°C° 0.8 mm 1 m/s 627 mmHg 91%
    23:00 +9°C° 0.8 mm 1 m/s 627 mmHg 91%

    Amanhã, 20 Outubro, Sábado

    Tempo Temperatura Precipitação Vento Pressão Humidade
    00:00 +9°C° 0.8 mm 1 m/s 627 mmHg 91%
    01:00 +9°C° 0.3 mm 1 m/s 627 mmHg 91%
    02:00 +8°C° 0.3 mm 1 m/s 627 mmHg 91%
    03:00 +8°C° 0.3 mm 1 m/s 627 mmHg 91%
    04:00 +8°C° 0.1 mm 1 m/s 627 mmHg 91%
    05:00 +8°C° 0.1 mm 1 m/s 627 mmHg 90%
    06:00 +8°C° 0.1 mm 1 m/s 628 mmHg 90%
    07:00 +9°C° 0.1 mm 1 m/s 628 mmHg 86%
    08:00 +11°C° 0.1 mm 1 m/s 629 mmHg 82%
    09:00 +12°C° 0.1 mm 1 m/s 630 mmHg 77%
    10:00 +13°C° 0.2 mm 1 m/s 631 mmHg 74%
    11:00 +14°C° 0.2 mm 1 m/s 631 mmHg 70%
    12:00 +15°C° 0.2 mm 1 m/s 631 mmHg 66%
    13:00 +14°C° 0.7 mm 1 m/s 631 mmHg 68%
    14:00 +14°C° 0.7 mm 1 m/s 631 mmHg 70%
    15:00 +14°C° 0.7 mm 1 m/s 630 mmHg 72%
    16:00 +12°C° 0.4 mm 1 m/s 630 mmHg 78%
    17:00 +10°C° 0.4 mm 0 m/s 630 mmHg 84%
    18:00 +9°C° 0.4 mm 0 m/s 629 mmHg 89%
    19:00 +9°C° 0.5 mm 0 m/s 629 mmHg 89%
    20:00 +9°C° 0.5 mm 1 m/s 629 mmHg 90%
    21:00 +9°C° 0.5 mm 1 m/s 630 mmHg 90%
    22:00 +9°C° 0.3 mm 1 m/s 630 mmHg 89%
    23:00 +9°C° 0.3 mm 1 m/s 629 mmHg 89%

    Depois de amanhã, 21 Outubro, Domingo

    Tempo Temperatura Precipitação Vento Pressão Humidade
    00:00 +8°C° 0.3 mm 1 m/s 629 mmHg 88%
    01:00 +8°C° 0 mm 1 m/s 629 mmHg 88%
    02:00 +8°C° 0 mm 1 m/s 629 mmHg 87%
    03:00 +8°C° 0 mm 1 m/s 628 mmHg 86%
    04:00 +7°C° 0 mm 1 m/s 628 mmHg 86%
    05:00 +7°C° 0 mm 1 m/s 628 mmHg 85%
    06:00 +7°C° 0 mm 1 m/s 628 mmHg 85%
    07:00 +9°C° 0 mm 1 m/s 629 mmHg 79%
    08:00 +10°C° 0 mm 0 m/s 630 mmHg 72%
    09:00 +12°C° 0 mm 0 m/s 631 mmHg 66%
    10:00 +13°C° 0 mm 0 m/s 631 mmHg 63%
    11:00 +15°C° 0 mm 1 m/s 632 mmHg 59%
    12:00 +16°C° 0 mm 1 m/s 632 mmHg 56%
    13:00 +16°C° 0.2 mm 1 m/s 631 mmHg 59%
    14:00 +15°C° 0.2 mm 1 m/s 631 mmHg 62%
    15:00 +14°C° 0.2 mm 1 m/s 630 mmHg 65%
    16:00 +13°C° 0 mm 1 m/s 629 mmHg 72%
    17:00 +11°C° 0 mm 1 m/s 629 mmHg 78%
    18:00 +10°C° 0 mm 1 m/s 628 mmHg 85%
    19:00 +9°C° 0 mm 1 m/s 628 mmHg 86%
    20:00 +9°C° 0 mm 1 m/s 628 mmHg 86%
    21:00 +8°C° 0 mm 1 m/s 628 mmHg 87%
    22:00 +7°C° 0 mm 2 m/s 628 mmHg 85%
    23:00 +7°C° 0 mm 2 m/s 628 mmHg 83%

    22 Outubro, Segunda-feira

    Tempo Temperatura Precipitação Vento Pressão Humidade
    00:00 +6°C° 0 mm 2 m/s 627 mmHg 81%
    01:00 +6°C° 0 mm 2 m/s 627 mmHg 79%
    02:00 +6°C° 0 mm 2 m/s 627 mmHg 76%
    03:00 +6°C° 0 mm 2 m/s 626 mmHg 74%
    04:00 +5°C° 0 mm 2 m/s 626 mmHg 73%
    05:00 +5°C° 0 mm 2 m/s 626 mmHg 73%
    06:00 +5°C° 0 mm 2 m/s 626 mmHg 73%
    07:00 +7°C° 0 mm 2 m/s 627 mmHg 67%
    08:00 +9°C° 0 mm 2 m/s 628 mmHg 62%
    09:00 +12°C° 0 mm 2 m/s 629 mmHg 56%
    10:00 +13°C° 0 mm 2 m/s 630 mmHg 51%
    11:00 +14°C° 0 mm 2 m/s 630 mmHg 46%
    12:00 +15°C° 0 mm 2 m/s 631 mmHg 41%
    13:00 +14°C° 0 mm 3 m/s 631 mmHg 44%
    14:00 +13°C° 0 mm 3 m/s 631 mmHg 47%
    15:00 +13°C° 0 mm 3 m/s 630 mmHg 50%
    16:00 +11°C° 0 mm 3 m/s 630 mmHg 59%
    17:00 +9°C° 0 mm 2 m/s 629 mmHg 69%
    18:00 +6°C° 0 mm 2 m/s 629 mmHg 79%
    19:00 +6°C° 0 mm 2 m/s 629 mmHg 77%
    20:00 +5°C° 0 mm 2 m/s 629 mmHg 75%
    21:00 +5°C° 0 mm 2 m/s 629 mmHg 73%
    22:00 +5°C° 0 mm 2 m/s 629 mmHg 71%
    23:00 +4°C° 0 mm 2 m/s 629 mmHg 70%

    23 Outubro, Terça-feira

    Tempo Temperatura Precipitação Vento Pressão Humidade
    00:00 +4°C° 0 mm 2 m/s 629 mmHg 69%
    01:00 +2°C° 0 mm 3 m/s 629 mmHg 69%
    02:00 +2°C° 0 mm 3 m/s 629 mmHg 69%
    03:00 +2°C° 0 mm 3 m/s 629 mmHg 69%
    04:00 +2°C° 0 mm 3 m/s 628 mmHg 69%
    05:00 +1°C° 0 mm 3 m/s 628 mmHg 68%
    06:00 +1°C° 0 mm 3 m/s 628 mmHg 68%
    07:00 +3°C° 0 mm 3 m/s 629 mmHg 61%
    08:00 +5°C° 0 mm 3 m/s 630 mmHg 55%
    09:00 +8°C° 0 mm 3 m/s 630 mmHg 49%
    10:00 +9°C° 0 mm 3 m/s 631 mmHg 46%
    11:00 +10°C° 0 mm 3 m/s 631 mmHg 43%
    12:00 +11°C° 0 mm 4 m/s 631 mmHg 41%
    13:00 +10°C° 0 mm 4 m/s 630 mmHg 43%
    14:00 +10°C° 0 mm 4 m/s 630 mmHg 45%
    15:00 +8°C° 0 mm 4 m/s 629 mmHg 47%
    16:00 +6°C° 0 mm 4 m/s 629 mmHg 57%
    17:00 +4°C° 0 mm 3 m/s 628 mmHg 66%
    18:00 +2°C° 0 mm 3 m/s 628 mmHg 76%
    19:00 +2°C° 0 mm 3 m/s 628 mmHg 75%
    20:00 +2°C° 0 mm 3 m/s 628 mmHg 74%
    21:00 +1°C° 0 mm 3 m/s 628 mmHg 73%
    22:00 +1°C° 0 mm 3 m/s 628 mmHg 71%
    23:00 +1°C° 0 mm 3 m/s 628 mmHg 70%

    24 Outubro, Quarta-feira

    Tempo Temperatura Precipitação Vento Pressão Humidade
    00:00 0°C° 0 mm 3 m/s 628 mmHg 68%
    01:00 0°C° 0 mm 3 m/s 628 mmHg 67%
    02:00 0°C° 0 mm 3 m/s 628 mmHg 65%
    03:00 0°C° 0 mm 3 m/s 628 mmHg 64%
    04:00 0°C° 0 mm 3 m/s 628 mmHg 64%
    05:00 0°C° 0 mm 3 m/s 628 mmHg 64%
    06:00 0°C° 0 mm 3 m/s 628 mmHg 63%
    07:00 +2°C° 0 mm 3 m/s 629 mmHg 59%
    08:00 +5°C° 0 mm 2 m/s 630 mmHg 54%
    09:00 +7°C° 0 mm 2 m/s 631 mmHg 49%
    10:00 +8°C° 0 mm 3 m/s 631 mmHg 47%
    11:00 +10°C° 0 mm 3 m/s 632 mmHg 45%
    12:00 +11°C° 0 mm 3 m/s 632 mmHg 43%
    13:00 +11°C° 0 mm 3 m/s 631 mmHg 46%
    14:00 +11°C° 0 mm 3 m/s 631 mmHg 49%
    15:00 +10°C° 0 mm 3 m/s 630 mmHg 52%
    16:00 +8°C° 0 mm 3 m/s 630 mmHg 59%
    17:00 +5°C° 0 mm 3 m/s 629 mmHg 66%
    18:00 +4°C° 0 mm 2 m/s 628 mmHg 73%
    19:00 +3°C° 0 mm 3 m/s 628 mmHg 73%
    20:00 +3°C° 0 mm 3 m/s 628 mmHg 73%
    21:00 +3°C° 0 mm 3 m/s 628 mmHg 73%
    22:00 +3°C° 0 mm 3 m/s 628 mmHg 73%
    23:00 +3°C° 0 mm 3 m/s 628 mmHg 73%
    Mostrar mais